contact:dominique.lefevre@mio.osupytheas.fr, maurice.libes@osupytheas.fr, didier.mallarino@osupytheas.fr
Project:EMSO http://www.emso-fr.org/EMSO-France
Depth: 2436.0 m
Title:EMSO Ligure Ouest : Data MII capteur MICROCAT
DateTime_Computer,Latitude,Longitude,Temperature,Conductivity,Pressure,DateTime_Instrument
DateTime_Computer,Latitude,Longitude,degC,S m-1,dbar,DateTime_Instrument
2023-03-14T00:03:02Z,42.805,6.029,13.3036,4.60089,2470.824,2023-3-14T02:05:40Z
2023-03-14T00:06:05Z,42.805,6.029,13.3039,4.60091,2470.8,2023-3-14T02:08:43Z
2023-03-14T00:09:08Z,42.805,6.029,13.3039,4.60094,2470.824,2023-3-14T02:11:46Z
2023-03-14T00:12:11Z,42.805,6.029,13.3038,4.60099,2470.787,2023-3-14T02:14:50Z
2023-03-14T00:15:14Z,42.805,6.029,13.3031,4.60092,2470.787,2023-3-14T02:17:53Z
2023-03-14T00:18:17Z,42.805,6.029,13.3032,4.60092,2470.8,2023-3-14T02:20:56Z
2023-03-14T00:21:20Z,42.805,6.029,13.3036,4.60093,2470.763,2023-3-14T02:23:59Z
2023-03-14T00:24:23Z,42.805,6.029,13.3042,4.60096,2470.81,2023-3-14T02:27:02Z
2023-03-14T00:27:26Z,42.805,6.029,13.3039,4.60101,2470.763,2023-3-14T02:30:05Z
2023-03-14T00:30:29Z,42.805,6.029,13.3041,4.60084,2470.8,2023-3-14T02:33:08Z
2023-03-14T00:33:32Z,42.805,6.029,13.3036,4.60104,2470.81,2023-3-14T02:36:11Z
2023-03-14T00:36:35Z,42.805,6.029,13.3043,4.60100,2470.787,2023-3-14T02:39:14Z
2023-03-14T00:39:38Z,42.805,6.029,13.3037,4.60092,2470.796,2023-3-14T02:42:17Z
2023-03-14T00:42:42Z,42.805,6.029,13.3033,4.60087,2470.787,2023-3-14T02:45:20Z
2023-03-14T00:45:45Z,42.805,6.029,13.3040,4.60092,2470.824,2023-3-14T02:48:23Z
2023-03-14T00:48:48Z,42.805,6.029,13.3028,4.60090,2470.81,2023-3-14T02:51:27Z
2023-03-14T00:51:51Z,42.805,6.029,13.3039,4.60099,2470.763,2023-3-14T02:54:30Z
2023-03-14T00:54:54Z,42.805,6.029,13.3042,4.60092,2470.787,2023-3-14T02:57:33Z
2023-03-14T00:57:57Z,42.805,6.029,13.3036,4.60089,2470.81,2023-3-14T03:00:36Z
2023-03-14T01:01:00Z,42.805,6.029,13.3038,4.60094,2470.777,2023-3-14T03:03:39Z
2023-03-14T01:04:03Z,42.805,6.029,13.3039,4.60087,2470.787,2023-3-14T03:06:42Z
2023-03-14T01:07:06Z,42.805,6.029,13.3041,4.60091,2470.754,2023-3-14T03:09:45Z
2023-03-14T01:10:09Z,42.805,6.029,13.3034,4.60089,2470.763,2023-3-14T03:12:48Z
2023-03-14T01:13:12Z,42.805,6.029,13.3029,4.60102,2470.777,2023-3-14T03:15:51Z
2023-03-14T01:16:15Z,42.805,6.029,13.3038,4.60085,2470.763,2023-3-14T03:18:54Z
2023-03-14T01:19:18Z,42.805,6.029,13.3030,4.60094,2470.777,2023-3-14T03:21:57Z
2023-03-14T01:22:22Z,42.805,6.029,13.3029,4.60092,2470.8,2023-3-14T03:25:00Z
2023-03-14T01:25:25Z,42.805,6.029,13.3035,4.60090,2470.787,2023-3-14T03:28:03Z
2023-03-14T01:28:28Z,42.805,6.029,13.3034,4.60093,2470.81,2023-3-14T03:31:07Z
2023-03-14T01:31:31Z,42.805,6.029,13.3041,4.60097,2470.787,2023-3-14T03:34:10Z
2023-03-14T01:34:34Z,42.805,6.029,13.3038,4.60092,2470.787,2023-3-14T03:37:13Z
2023-03-14T01:37:37Z,42.805,6.029,13.3040,4.60098,2470.763,2023-3-14T03:40:16Z
2023-03-14T01:40:40Z,42.805,6.029,13.3034,4.60087,2470.763,2023-3-14T03:43:19Z
2023-03-14T01:43:43Z,42.805,6.029,13.3038,4.60088,2470.777,2023-3-14T03:46:22Z
2023-03-14T01:46:46Z,42.805,6.029,13.3043,4.60097,2470.763,2023-3-14T03:49:25Z
2023-03-14T01:49:49Z,42.805,6.029,13.3032,4.60097,2470.763,2023-3-14T03:52:28Z
2023-03-14T01:52:52Z,42.805,6.029,13.3038,4.60106,2470.74,2023-3-14T03:55:31Z
2023-03-14T01:55:55Z,42.805,6.029,13.3039,4.60107,2470.787,2023-3-14T03:58:34Z
2023-03-14T01:58:59Z,42.805,6.029,13.3041,4.60110,2470.81,2023-3-14T04:01:37Z
2023-03-14T02:02:02Z,42.805,6.029,13.3040,4.60094,2470.773,2023-3-14T04:04:40Z
2023-03-14T02:05:05Z,42.805,6.029,13.3033,4.60104,2470.787,2023-3-14T04:07:43Z
2023-03-14T02:08:08Z,42.805,6.029,13.3039,4.60091,2470.763,2023-3-14T04:10:47Z
2023-03-14T02:11:11Z,42.805,6.029,13.3039,4.60110,2470.777,2023-3-14T04:13:50Z
2023-03-14T02:14:14Z,42.805,6.029,13.3045,4.60112,2470.777,2023-3-14T04:16:53Z
2023-03-14T02:17:17Z,42.805,6.029,13.3051,4.60105,2470.763,2023-3-14T04:19:56Z
2023-03-14T02:20:20Z,42.805,6.029,13.3039,4.60099,2470.717,2023-3-14T04:22:59Z
2023-03-14T02:23:23Z,42.805,6.029,13.3035,4.60096,2470.8,2023-3-14T04:26:02Z
2023-03-14T02:26:26Z,42.805,6.029,13.3037,4.60095,2470.763,2023-3-14T04:29:05Z
2023-03-14T02:29:29Z,42.805,6.029,13.3030,4.60115,2470.726,2023-3-14T04:32:08Z
2023-03-14T02:32:32Z,42.805,6.029,13.3031,4.60091,2470.763,2023-3-14T04:35:11Z
2023-03-14T02:35:35Z,42.805,6.029,13.3031,4.60092,2470.787,2023-3-14T04:38:14Z
2023-03-14T02:38:39Z,42.805,6.029,13.3047,4.60099,2470.787,2023-3-14T04:41:17Z
2023-03-14T02:41:42Z,42.805,6.029,13.3034,4.60100,2470.763,2023-3-14T04:44:20Z
2023-03-14T02:44:45Z,42.805,6.029,13.3036,4.60092,2470.777,2023-3-14T04:47:24Z
2023-03-14T02:47:48Z,42.805,6.029,13.3033,4.60102,2470.763,2023-3-14T04:50:27Z
2023-03-14T02:50:51Z,42.805,6.029,13.3039,4.60114,2470.777,2023-3-14T04:53:30Z
2023-03-14T02:53:54Z,42.805,6.029,13.3031,4.60110,2470.763,2023-3-14T04:56:33Z
2023-03-14T02:56:57Z,42.805,6.029,13.3036,4.60099,2470.74,2023-3-14T04:59:36Z
2023-03-14T03:00:00Z,42.805,6.029,13.3042,4.60102,2470.74,2023-3-14T05:02:39Z
2023-03-14T03:03:03Z,42.805,6.029,13.3026,4.60103,2470.777,2023-3-14T05:05:42Z
2023-03-14T03:06:06Z,42.805,6.029,13.3037,4.60091,2470.763,2023-3-14T05:08:45Z
2023-03-14T03:09:09Z,42.805,6.029,13.3031,4.60097,2470.754,2023-3-14T05:11:48Z
2023-03-14T03:12:12Z,42.805,6.029,13.3030,4.60103,2470.763,2023-3-14T05:14:51Z
2023-03-14T03:15:16Z,42.805,6.029,13.3036,4.60101,2470.777,2023-3-14T05:17:54Z
2023-03-14T03:18:19Z,42.805,6.029,13.3032,4.60089,2470.8,2023-3-14T05:20:57Z
2023-03-14T03:21:22Z,42.805,6.029,13.3042,4.60112,2470.787,2023-3-14T05:24:01Z
2023-03-14T03:24:25Z,42.805,6.029,13.3030,4.60109,2470.777,2023-3-14T05:27:04Z
2023-03-14T03:27:28Z,42.805,6.029,13.3036,4.60110,2470.74,2023-3-14T05:30:07Z
2023-03-14T03:30:31Z,42.805,6.029,13.3041,4.60096,2470.763,2023-3-14T05:33:10Z
2023-03-14T03:33:34Z,42.805,6.029,13.3041,4.60089,2470.74,2023-3-14T05:36:13Z
2023-03-14T03:36:37Z,42.805,6.029,13.3034,4.60097,2470.763,2023-3-14T05:39:16Z
2023-03-14T03:39:40Z,42.805,6.029,13.3029,4.60090,2470.763,2023-3-14T05:42:19Z
2023-03-14T03:42:43Z,42.805,6.029,13.3043,4.60091,2470.763,2023-3-14T05:45:22Z
2023-03-14T03:45:46Z,42.805,6.029,13.3028,4.60099,2470.726,2023-3-14T05:48:25Z
2023-03-14T03:48:49Z,42.805,6.029,13.3036,4.60104,2470.717,2023-3-14T05:51:28Z
2023-03-14T03:51:52Z,42.805,6.029,13.3045,4.60101,2470.754,2023-3-14T05:54:31Z
2023-03-14T03:54:56Z,42.805,6.029,13.3026,4.60109,2470.74,2023-3-14T05:57:34Z
2023-03-14T03:57:59Z,42.805,6.029,13.3028,4.60102,2470.777,2023-3-14T06:00:38Z
2023-03-14T04:01:02Z,42.805,6.029,13.3028,4.60117,2470.74,2023-3-14T06:03:41Z
2023-03-14T04:04:05Z,42.805,6.029,13.3036,4.60112,2470.74,2023-3-14T06:06:44Z
2023-03-14T04:07:08Z,42.805,6.029,13.3039,4.60104,2470.74,2023-3-14T06:09:47Z
2023-03-14T04:10:11Z,42.805,6.029,13.3029,4.60102,2470.74,2023-3-14T06:12:50Z
2023-03-14T04:13:14Z,42.805,6.029,13.3029,4.60116,2470.754,2023-3-14T06:15:53Z
2023-03-14T04:16:17Z,42.805,6.029,13.3039,4.60104,2470.73,2023-3-14T06:18:56Z
2023-03-14T04:19:20Z,42.805,6.029,13.3051,4.60149,2470.73,2023-3-14T06:21:59Z
2023-03-14T04:22:23Z,42.805,6.029,13.3053,4.60150,2470.754,2023-3-14T06:25:02Z
2023-03-14T04:25:26Z,42.805,6.029,13.3046,4.60135,2470.74,2023-3-14T06:28:05Z
2023-03-14T04:28:29Z,42.805,6.029,13.3048,4.60141,2470.777,2023-3-14T06:31:08Z
2023-03-14T04:31:32Z,42.805,6.029,13.3057,4.60111,2470.74,2023-3-14T06:34:11Z
2023-03-14T04:34:36Z,42.805,6.029,13.3045,4.60104,2470.73,2023-3-14T06:37:14Z
2023-03-14T04:37:39Z,42.805,6.029,13.3048,4.60104,2470.717,2023-3-14T06:40:18Z
2023-03-14T04:40:42Z,42.805,6.029,13.3058,4.60099,2470.754,2023-3-14T06:43:21Z
2023-03-14T04:43:45Z,42.805,6.029,13.3048,4.60112,2470.717,2023-3-14T06:46:24Z
2023-03-14T04:46:48Z,42.805,6.029,13.3039,4.60095,2470.74,2023-3-14T06:49:27Z
2023-03-14T04:49:51Z,42.805,6.029,13.3035,4.60122,2470.717,2023-3-14T06:52:30Z
2023-03-14T04:52:54Z,42.805,6.029,13.3036,4.60099,2470.717,2023-3-14T06:55:33Z
2023-03-14T04:55:57Z,42.805,6.029,13.3051,4.60119,2470.693,2023-3-14T06:58:36Z
2023-03-14T04:59:00Z,42.805,6.029,13.3041,4.60108,2470.73,2023-3-14T07:01:39Z
2023-03-14T05:02:03Z,42.805,6.029,13.3045,4.60103,2470.717,2023-3-14T07:04:42Z
2023-03-14T05:05:06Z,42.805,6.029,13.3043,4.60151,2470.717,2023-3-14T07:07:45Z
2023-03-14T05:08:09Z,42.805,6.029,13.3059,4.60161,2470.717,2023-3-14T07:10:48Z
2023-03-14T05:11:13Z,42.805,6.029,13.3046,4.60109,2470.717,2023-3-14T07:13:51Z
2023-03-14T05:14:16Z,42.805,6.029,13.3052,4.60103,2470.754,2023-3-14T07:16:55Z
2023-03-14T05:17:19Z,42.805,6.029,13.3036,4.60116,2470.73,2023-3-14T07:19:58Z
2023-03-14T05:20:22Z,42.805,6.029,13.3052,4.60103,2470.717,2023-3-14T07:23:01Z
2023-03-14T05:23:25Z,42.805,6.029,13.3043,4.60121,2470.74,2023-3-14T07:26:04Z
2023-03-14T05:26:28Z,42.805,6.029,13.3041,4.60127,2470.707,2023-3-14T07:29:07Z
2023-03-14T05:29:31Z,42.805,6.029,13.3046,4.60149,2470.73,2023-3-14T07:32:10Z
2023-03-14T05:32:34Z,42.805,6.029,13.3037,4.60130,2470.73,2023-3-14T07:35:13Z
2023-03-14T05:35:37Z,42.805,6.029,13.3036,4.60126,2470.74,2023-3-14T07:38:16Z
2023-03-14T05:38:40Z,42.805,6.029,13.3043,4.60130,2470.717,2023-3-14T07:41:19Z
2023-03-14T05:41:43Z,42.805,6.029,13.3039,4.60131,2470.717,2023-3-14T07:44:22Z
2023-03-14T05:44:46Z,42.805,6.029,13.3038,4.60090,2470.707,2023-3-14T07:47:25Z
2023-03-14T05:47:49Z,42.805,6.029,13.3050,4.60096,2470.73,2023-3-14T07:50:28Z
2023-03-14T05:50:53Z,42.805,6.029,13.3036,4.60109,2470.693,2023-3-14T07:53:31Z
2023-03-14T05:53:56Z,42.805,6.029,13.3041,4.60129,2470.73,2023-3-14T07:56:35Z
2023-03-14T05:56:59Z,42.805,6.029,13.3041,4.60105,2470.717,2023-3-14T07:59:38Z
2023-03-14T06:00:02Z,42.805,6.029,13.3051,4.60116,2470.717,2023-3-14T08:02:41Z
2023-03-14T06:03:05Z,42.805,6.029,13.3046,4.60143,2470.754,2023-3-14T08:05:44Z
2023-03-14T06:06:08Z,42.805,6.029,13.3061,4.60164,2470.754,2023-3-14T08:08:47Z
2023-03-14T06:09:11Z,42.805,6.029,13.3043,4.60113,2470.693,2023-3-14T08:11:50Z
2023-03-14T06:12:14Z,42.805,6.029,13.3051,4.60125,2470.74,2023-3-14T08:14:53Z
2023-03-14T06:15:17Z,42.805,6.029,13.3029,4.60147,2470.717,2023-3-14T08:17:56Z
2023-03-14T06:18:20Z,42.805,6.029,13.3037,4.60125,2470.707,2023-3-14T08:20:59Z
2023-03-14T06:21:23Z,42.805,6.029,13.3039,4.60132,2470.717,2023-3-14T08:24:02Z
2023-03-14T06:24:26Z,42.805,6.029,13.3036,4.60146,2470.717,2023-3-14T08:27:05Z
2023-03-14T06:27:30Z,42.805,6.029,13.3054,4.60156,2470.693,2023-3-14T08:30:08Z
2023-03-14T06:30:33Z,42.805,6.029,13.3052,4.60148,2470.693,2023-3-14T08:33:12Z
2023-03-14T06:33:36Z,42.805,6.029,13.3043,4.60165,2470.693,2023-3-14T08:36:15Z
2023-03-14T06:36:39Z,42.805,6.029,13.3060,4.60110,2470.707,2023-3-14T08:39:18Z
2023-03-14T06:39:42Z,42.805,6.029,13.3055,4.60125,2470.73,2023-3-14T08:42:21Z
2023-03-14T06:42:45Z,42.805,6.029,13.3036,4.60135,2470.707,2023-3-14T08:45:24Z
2023-03-14T06:45:48Z,42.805,6.029,13.3057,4.60162,2470.73,2023-3-14T08:48:27Z
2023-03-14T06:48:51Z,42.805,6.029,13.3043,4.60147,2470.717,2023-3-14T08:51:30Z
2023-03-14T06:51:54Z,42.805,6.029,13.3044,4.60152,2470.717,2023-3-14T08:54:33Z
2023-03-14T06:54:57Z,42.805,6.029,13.3050,4.60158,2470.717,2023-3-14T08:57:36Z
2023-03-14T06:58:00Z,42.805,6.029,13.3029,4.60123,2470.717,2023-3-14T09:00:39Z
2023-03-14T07:01:03Z,42.805,6.029,13.3039,4.60123,2470.73,2023-3-14T09:03:42Z
2023-03-14T07:04:06Z,42.805,6.029,13.3043,4.60150,2470.707,2023-3-14T09:06:45Z
2023-03-14T07:07:10Z,42.805,6.029,13.3036,4.60152,2470.717,2023-3-14T09:09:48Z
2023-03-14T07:10:13Z,42.805,6.029,13.3045,4.60147,2470.717,2023-3-14T09:12:52Z
2023-03-14T07:13:16Z,42.805,6.029,13.3034,4.60108,2470.693,2023-3-14T09:15:55Z
2023-03-14T07:16:19Z,42.805,6.029,13.3032,4.60107,2470.754,2023-3-14T09:18:58Z
2023-03-14T07:19:22Z,42.805,6.029,13.3041,4.60118,2470.707,2023-3-14T09:22:01Z
2023-03-14T07:22:25Z,42.805,6.029,13.3058,4.60147,2470.717,2023-3-14T09:25:04Z
2023-03-14T07:25:28Z,42.805,6.029,13.3052,4.60140,2470.717,2023-3-14T09:28:07Z
2023-03-14T07:28:31Z,42.805,6.029,13.3056,4.60140,2470.717,2023-3-14T09:31:10Z
2023-03-14T07:31:34Z,42.805,6.029,13.3038,4.60132,2470.717,2023-3-14T09:34:13Z
2023-03-14T07:34:37Z,42.805,6.029,13.3036,4.60140,2470.73,2023-3-14T09:37:16Z
2023-03-14T07:37:40Z,42.805,6.029,13.3045,4.60147,2470.763,2023-3-14T09:40:19Z
2023-03-14T07:40:43Z,42.805,6.029,13.3049,4.60135,2470.73,2023-3-14T09:43:22Z
2023-03-14T07:43:47Z,42.805,6.029,13.3047,4.60144,2470.754,2023-3-14T09:46:25Z
2023-03-14T07:46:50Z,42.805,6.029,13.3046,4.60132,2470.74,2023-3-14T09:49:29Z
2023-03-14T07:49:53Z,42.805,6.029,13.3039,4.60127,2470.717,2023-3-14T09:52:32Z
2023-03-14T07:52:56Z,42.805,6.029,13.3042,4.60156,2470.74,2023-3-14T09:55:35Z
2023-03-14T07:55:59Z,42.805,6.029,13.3036,4.60139,2470.74,2023-3-14T09:58:38Z
2023-03-14T07:59:02Z,42.805,6.029,13.3034,4.60137,2470.763,2023-3-14T10:01:41Z
2023-03-14T08:02:05Z,42.805,6.029,13.3040,4.60130,2470.777,2023-3-14T10:04:44Z
2023-03-14T08:05:08Z,42.805,6.029,13.3055,4.60157,2470.717,2023-3-14T10:07:47Z
2023-03-14T08:08:11Z,42.805,6.029,13.3053,4.60146,2470.754,2023-3-14T10:10:50Z
2023-03-14T08:11:14Z,42.805,6.029,13.3040,4.60140,2470.754,2023-3-14T10:13:53Z
2023-03-14T08:14:17Z,42.805,6.029,13.3040,4.60135,2470.74,2023-3-14T10:16:56Z
2023-03-14T08:17:20Z,42.805,6.029,13.3036,4.60130,2470.754,2023-3-14T10:19:59Z
2023-03-14T08:20:24Z,42.805,6.029,13.3042,4.60141,2470.74,2023-3-14T10:23:02Z
2023-03-14T08:23:27Z,42.805,6.029,13.3034,4.60142,2470.754,2023-3-14T10:26:06Z
2023-03-14T08:26:30Z,42.805,6.029,13.3040,4.60148,2470.777,2023-3-14T10:29:09Z
2023-03-14T08:29:33Z,42.805,6.029,13.3046,4.60137,2470.754,2023-3-14T10:32:12Z
2023-03-14T08:32:36Z,42.805,6.029,13.3061,4.60141,2470.754,2023-3-14T10:35:15Z
2023-03-14T08:35:39Z,42.805,6.029,13.3056,4.60138,2470.74,2023-3-14T10:38:18Z
2023-03-14T08:38:42Z,42.805,6.029,13.3040,4.60121,2470.74,2023-3-14T10:41:21Z
2023-03-14T08:41:45Z,42.805,6.029,13.3039,4.60154,2470.74,2023-3-14T10:44:24Z
2023-03-14T08:44:48Z,42.805,6.029,13.3044,4.60122,2470.754,2023-3-14T10:47:27Z
2023-03-14T08:47:51Z,42.805,6.029,13.3048,4.60144,2470.763,2023-3-14T10:50:30Z
2023-03-14T08:50:54Z,42.805,6.029,13.3053,4.60133,2470.763,2023-3-14T10:53:33Z
2023-03-14T08:53:57Z,42.805,6.029,13.3043,4.60142,2470.754,2023-3-14T10:56:36Z
2023-03-14T08:57:01Z,42.805,6.029,13.3051,4.60143,2470.74,2023-3-14T10:59:40Z
2023-03-14T09:00:04Z,42.805,6.029,13.3059,4.60137,2470.754,2023-3-14T11:02:43Z
2023-03-14T09:03:07Z,42.805,6.029,13.3070,4.60111,2470.763,2023-3-14T11:05:46Z
2023-03-14T09:06:10Z,42.805,6.029,13.3055,4.60144,2470.763,2023-3-14T11:08:49Z
2023-03-14T09:09:13Z,42.805,6.029,13.3067,4.60151,2470.777,2023-3-14T11:11:52Z
2023-03-14T09:12:16Z,42.805,6.029,13.3048,4.60157,2470.763,2023-3-14T11:14:55Z
2023-03-14T09:15:19Z,42.805,6.029,13.3052,4.60133,2470.763,2023-3-14T11:17:58Z
2023-03-14T09:18:22Z,42.805,6.029,13.3050,4.60143,2470.777,2023-3-14T11:21:01Z
2023-03-14T09:21:25Z,42.805,6.029,13.3046,4.60147,2470.763,2023-3-14T11:24:04Z
2023-03-14T09:24:28Z,42.805,6.029,13.3055,4.60145,2470.787,2023-3-14T11:27:07Z
2023-03-14T09:27:31Z,42.805,6.029,13.3040,4.60148,2470.777,2023-3-14T11:30:10Z
2023-03-14T09:30:34Z,42.805,6.029,13.3040,4.60150,2470.787,2023-3-14T11:33:13Z
2023-03-14T09:33:38Z,42.805,6.029,13.3058,4.60137,2470.8,2023-3-14T11:36:17Z
2023-03-14T09:36:41Z,42.805,6.029,13.3048,4.60150,2470.8,2023-3-14T11:39:20Z
2023-03-14T09:39:44Z,42.805,6.029,13.3041,4.60145,2470.763,2023-3-14T11:42:23Z
2023-03-14T09:42:47Z,42.805,6.029,13.3055,4.60123,2470.8,2023-3-14T11:45:26Z
2023-03-14T09:45:50Z,42.805,6.029,13.3053,4.60137,2470.787,2023-3-14T11:48:29Z
2023-03-14T09:48:53Z,42.805,6.029,13.3047,4.60122,2470.787,2023-3-14T11:51:32Z
2023-03-14T09:51:56Z,42.805,6.029,13.3054,4.60114,2470.787,2023-3-14T11:54:35Z
2023-03-14T09:54:59Z,42.805,6.029,13.3039,4.60121,2470.787,2023-3-14T11:57:38Z
2023-03-14T09:58:02Z,42.805,6.029,13.3038,4.60137,2470.787,2023-3-14T12:00:41Z
2023-03-14T10:01:05Z,42.805,6.029,13.3046,4.60157,2470.81,2023-3-14T12:03:44Z
2023-03-14T10:04:08Z,42.805,6.029,13.3058,4.60147,2470.81,2023-3-14T12:06:47Z
2023-03-14T10:07:12Z,42.805,6.029,13.3033,4.60154,2470.787,2023-3-14T12:09:51Z
2023-03-14T10:10:15Z,42.805,6.029,13.3048,4.60127,2470.81,2023-3-14T12:12:54Z
2023-03-14T10:13:18Z,42.805,6.029,13.3048,4.60117,2470.8,2023-3-14T12:15:57Z
2023-03-14T10:16:21Z,42.805,6.029,13.3039,4.60127,2470.8,2023-3-14T12:19:00Z
2023-03-14T10:19:24Z,42.805,6.029,13.3035,4.60120,2470.833,2023-3-14T12:22:03Z
2023-03-14T10:22:27Z,42.805,6.029,13.3043,4.60126,2470.8,2023-3-14T12:25:06Z
2023-03-14T10:25:30Z,42.805,6.029,13.3048,4.60119,2470.824,2023-3-14T12:28:09Z
2023-03-14T10:28:33Z,42.805,6.029,13.3038,4.60127,2470.833,2023-3-14T12:31:12Z
2023-03-14T10:31:36Z,42.805,6.029,13.3047,4.60128,2470.8,2023-3-14T12:34:15Z
2023-03-14T10:34:39Z,42.805,6.029,13.3039,4.60123,2470.81,2023-3-14T12:37:18Z
2023-03-14T10:37:42Z,42.805,6.029,13.3036,4.60127,2470.81,2023-3-14T12:40:21Z
2023-03-14T10:40:45Z,42.805,6.029,13.3051,4.60125,2470.8,2023-3-14T12:43:24Z
2023-03-14T10:43:48Z,42.805,6.029,13.3043,4.60128,2470.8,2023-3-14T12:46:27Z
2023-03-14T10:46:52Z,42.805,6.029,13.3031,4.60125,2470.8,2023-3-14T12:49:31Z
2023-03-14T10:49:55Z,42.805,6.029,13.3045,4.60130,2470.787,2023-3-14T12:52:34Z
2023-03-14T10:52:58Z,42.805,6.029,13.3026,4.60113,2470.787,2023-3-14T12:55:37Z
2023-03-14T10:56:01Z,42.805,6.029,13.3039,4.60114,2470.787,2023-3-14T12:58:40Z
2023-03-14T10:59:04Z,42.805,6.029,13.3044,4.60121,2470.81,2023-3-14T13:01:43Z
2023-03-14T11:02:07Z,42.805,6.029,13.3041,4.60119,2470.763,2023-3-14T13:04:46Z
2023-03-14T11:05:10Z,42.805,6.029,13.3041,4.60127,2470.824,2023-3-14T13:07:49Z
2023-03-14T11:08:13Z,42.805,6.029,13.3039,4.60103,2470.8,2023-3-14T13:10:52Z
2023-03-14T11:11:16Z,42.805,6.029,13.3029,4.60110,2470.787,2023-3-14T13:13:55Z
2023-03-14T11:14:19Z,42.805,6.029,13.3043,4.60117,2470.754,2023-3-14T13:16:58Z
2023-03-14T11:17:22Z,42.805,6.029,13.3041,4.60116,2470.787,2023-3-14T13:20:01Z
2023-03-14T11:20:26Z,42.805,6.029,13.3033,4.60116,2470.787,2023-3-14T13:23:05Z
2023-03-14T11:23:29Z,42.805,6.029,13.3039,4.60097,2470.787,2023-3-14T13:26:08Z
2023-03-14T11:26:32Z,42.805,6.029,13.3037,4.60090,2470.8,2023-3-14T13:29:11Z
2023-03-14T11:29:35Z,42.805,6.029,13.3040,4.60127,2470.787,2023-3-14T13:32:14Z
2023-03-14T11:32:38Z,42.805,6.029,13.3029,4.60113,2470.763,2023-3-14T13:35:17Z
2023-03-14T11:35:41Z,42.805,6.029,13.3045,4.60125,2470.8,2023-3-14T13:38:20Z
2023-03-14T11:38:44Z,42.805,6.029,13.3046,4.60124,2470.763,2023-3-14T13:41:23Z
2023-03-14T11:41:47Z,42.805,6.029,13.3033,4.60094,2470.81,2023-3-14T13:44:26Z
2023-03-14T11:44:50Z,42.805,6.029,13.3037,4.60102,2470.763,2023-3-14T13:47:29Z
2023-03-14T11:47:53Z,42.805,6.029,13.3039,4.60095,2470.777,2023-3-14T13:50:32Z
2023-03-14T11:50:56Z,42.805,6.029,13.3032,4.60137,2470.763,2023-3-14T13:53:35Z
2023-03-14T11:53:59Z,42.805,6.029,13.3035,4.60125,2470.777,2023-3-14T13:56:38Z
2023-03-14T11:57:03Z,42.805,6.029,13.3027,4.60094,2470.763,2023-3-14T13:59:42Z
2023-03-14T12:00:06Z,42.805,6.029,13.3030,4.60108,2470.777,2023-3-14T14:02:45Z
2023-03-14T12:03:09Z,42.805,6.029,13.3037,4.60129,2470.777,2023-3-14T14:05:48Z
2023-03-14T12:06:12Z,42.805,6.029,13.3029,4.60120,2470.777,2023-3-14T14:08:51Z
2023-03-14T12:09:15Z,42.805,6.029,13.3036,4.60102,2470.787,2023-3-14T14:11:54Z
2023-03-14T12:12:18Z,42.805,6.029,13.3032,4.60094,2470.754,2023-3-14T14:14:57Z
2023-03-14T12:15:21Z,42.805,6.029,13.3044,4.60122,2470.763,2023-3-14T14:18:00Z
2023-03-14T12:18:24Z,42.805,6.029,13.3030,4.60113,2470.73,2023-3-14T14:21:03Z
2023-03-14T12:21:27Z,42.805,6.029,13.3046,4.60115,2470.74,2023-3-14T14:24:06Z
2023-03-14T12:24:30Z,42.805,6.029,13.3039,4.60128,2470.703,2023-3-14T14:27:09Z
2023-03-14T12:27:33Z,42.805,6.029,13.3044,4.60110,2470.763,2023-3-14T14:30:12Z
2023-03-14T12:30:36Z,42.805,6.029,13.3038,4.60110,2470.754,2023-3-14T14:33:16Z
2023-03-14T12:33:40Z,42.805,6.029,13.3043,4.60123,2470.777,2023-3-14T14:36:19Z
2023-03-14T12:36:43Z,42.805,6.029,13.3034,4.60109,2470.754,2023-3-14T14:39:22Z
2023-03-14T12:39:46Z,42.805,6.029,13.3029,4.60110,2470.74,2023-3-14T14:42:25Z
2023-03-14T12:42:49Z,42.805,6.029,13.3024,4.60092,2470.73,2023-3-14T14:45:28Z
2023-03-14T12:45:52Z,42.805,6.029,13.3034,4.60107,2470.74,2023-3-14T14:48:31Z
2023-03-14T12:48:55Z,42.805,6.029,13.3031,4.60096,2470.754,2023-3-14T14:51:34Z
2023-03-14T12:51:58Z,42.805,6.029,13.3026,4.60102,2470.717,2023-3-14T14:54:37Z
2023-03-14T12:55:01Z,42.805,6.029,13.3026,4.60101,2470.73,2023-3-14T14:57:40Z
2023-03-14T12:58:04Z,42.805,6.029,13.3033,4.60102,2470.74,2023-3-14T15:00:43Z
2023-03-14T13:01:07Z,42.805,6.029,13.3029,4.60097,2470.74,2023-3-14T15:03:46Z
2023-03-14T13:04:10Z,42.805,6.029,13.3028,4.60092,2470.693,2023-3-14T15:06:49Z
2023-03-14T13:07:13Z,42.805,6.029,13.3026,4.60088,2470.763,2023-3-14T15:09:53Z
2023-03-14T13:10:17Z,42.805,6.029,13.3035,4.60107,2470.754,2023-3-14T15:12:56Z
2023-03-14T13:13:20Z,42.805,6.029,13.3032,4.60107,2470.754,2023-3-14T15:15:59Z
2023-03-14T13:16:23Z,42.805,6.029,13.3025,4.60092,2470.73,2023-3-14T15:19:02Z
2023-03-14T13:19:26Z,42.805,6.029,13.3026,4.60089,2470.73,2023-3-14T15:22:05Z
2023-03-14T13:22:29Z,42.805,6.029,13.3034,4.60101,2470.717,2023-3-14T15:25:08Z
2023-03-14T13:25:32Z,42.805,6.029,13.3023,4.60086,2470.717,2023-3-14T15:28:11Z
2023-03-14T13:28:35Z,42.805,6.029,13.3036,4.60115,2470.717,2023-3-14T15:31:14Z
2023-03-14T13:31:38Z,42.805,6.029,13.3038,4.60119,2470.74,2023-3-14T15:34:17Z
2023-03-14T13:34:41Z,42.805,6.029,13.3021,4.60092,2470.693,2023-3-14T15:37:20Z
2023-03-14T13:37:44Z,42.805,6.029,13.3024,4.60087,2470.74,2023-3-14T15:40:23Z
2023-03-14T13:40:47Z,42.805,6.029,13.3025,4.60092,2470.73,2023-3-14T15:43:26Z
2023-03-14T13:43:50Z,42.805,6.029,13.3024,4.60103,2470.754,2023-3-14T15:46:30Z
2023-03-14T13:46:54Z,42.805,6.029,13.3024,4.60090,2470.693,2023-3-14T15:49:33Z
2023-03-14T13:49:57Z,42.805,6.029,13.3026,4.60099,2470.717,2023-3-14T15:52:36Z
2023-03-14T13:53:00Z,42.805,6.029,13.3024,4.60101,2470.73,2023-3-14T15:55:39Z
2023-03-14T13:56:03Z,42.805,6.029,13.3033,4.60107,2470.693,2023-3-14T15:58:42Z
2023-03-14T13:59:06Z,42.805,6.029,13.3029,4.60092,2470.717,2023-3-14T16:01:45Z
2023-03-14T14:02:09Z,42.805,6.029,13.3031,4.60090,2470.67,2023-3-14T16:04:48Z
2023-03-14T14:05:12Z,42.805,6.029,13.3031,4.60095,2470.693,2023-3-14T16:07:51Z
2023-03-14T14:08:15Z,42.805,6.029,13.3026,4.60095,2470.717,2023-3-14T16:10:54Z
2023-03-14T14:11:18Z,42.805,6.029,13.3029,4.60110,2470.693,2023-3-14T16:13:57Z
2023-03-14T14:14:21Z,42.805,6.029,13.3022,4.60084,2470.693,2023-3-14T16:17:00Z
2023-03-14T14:17:24Z,42.805,6.029,13.3024,4.60088,2470.684,2023-3-14T16:20:03Z
2023-03-14T14:20:27Z,42.805,6.029,13.3028,4.60102,2470.707,2023-3-14T16:23:07Z
2023-03-14T14:23:31Z,42.805,6.029,13.3029,4.60096,2470.693,2023-3-14T16:26:10Z
2023-03-14T14:26:34Z,42.805,6.029,13.3023,4.60089,2470.693,2023-3-14T16:29:13Z
2023-03-14T14:29:37Z,42.805,6.029,13.3028,4.60092,2470.707,2023-3-14T16:32:16Z
2023-03-14T14:32:40Z,42.805,6.029,13.3026,4.60088,2470.693,2023-3-14T16:35:19Z
2023-03-14T14:35:43Z,42.805,6.029,13.3023,4.60082,2470.67,2023-3-14T16:38:22Z
2023-03-14T14:38:46Z,42.805,6.029,13.3028,4.60102,2470.656,2023-3-14T16:41:25Z
2023-03-14T14:41:49Z,42.805,6.029,13.3021,4.60083,2470.67,2023-3-14T16:44:28Z
2023-03-14T14:44:52Z,42.805,6.029,13.3022,4.60090,2470.693,2023-3-14T16:47:31Z
2023-03-14T14:47:55Z,42.805,6.029,13.3026,4.60083,2470.67,2023-3-14T16:50:34Z
2023-03-14T14:50:58Z,42.805,6.029,13.3017,4.60092,2470.717,2023-3-14T16:53:37Z
2023-03-14T14:54:01Z,42.805,6.029,13.3029,4.60101,2470.67,2023-3-14T16:56:41Z
2023-03-14T14:57:05Z,42.805,6.029,13.3028,4.60088,2470.693,2023-3-14T16:59:44Z
2023-03-14T15:00:08Z,42.805,6.029,13.3021,4.60085,2470.67,2023-3-14T17:02:47Z
2023-03-14T15:03:11Z,42.805,6.029,13.3021,4.60081,2470.646,2023-3-14T17:05:50Z
2023-03-14T15:06:14Z,42.805,6.029,13.3029,4.60103,2470.67,2023-3-14T17:08:53Z
2023-03-14T15:09:17Z,42.805,6.029,13.3024,4.60091,2470.707,2023-3-14T17:11:56Z
2023-03-14T15:12:20Z,42.805,6.029,13.3028,4.60091,2470.684,2023-3-14T17:14:59Z
2023-03-14T15:15:23Z,42.805,6.029,13.3032,4.60102,2470.646,2023-3-14T17:18:02Z